Simultaneous Nadir Overpasses (SNOs) Predictions

Prediction of SNOs between LANDSAT-8 and NOAA-19 Satellite Orbit:

Table of predicted SNOs for the next 14.0 days since TLE Epoch: 11/26/2022
Index Date (LANDSAT-8) Time (LANDSAT-8) Lat,Lon (LANDSAT-8) SZA (LANDSAT-8 ) Date (NOAA-19) Time (NOAA-19) Lat,Lon (NOAA-19) SZA (NOAA-19 ) Distance(km) Time Diff (sec)
1 11/26/2022 16:11:17 -80.88, 153.72 76.14 11/26/2022 16:10:35 -80.90, 153.75 76.14 1.83 42
2 11/26/2022 17:00:43 80.89, -38.53 103.89 11/26/2022 17:01:34 80.89, -38.56 103.91 0.70 51
3 11/28/2022 22:34:27 -80.91, 58.25 75.70 11/28/2022 22:34:21 -80.89, 58.16 75.72 1.99 6
4 12/01/2022 04:08:11 80.90, 154.76 104.64 12/01/2022 04:07:08 80.90, 154.65 104.60 2.00 63
5 12/01/2022 04:57:38 -80.90, -37.64 75.37 12/01/2022 04:58:07 -80.89, -37.47 75.35 3.10 29
6 12/03/2022 10:31:22 80.89, 58.78 104.92 12/03/2022 10:30:54 80.90, 58.73 104.91 1.54 28
7 12/03/2022 11:20:49 -80.89,-133.60 75.08 12/03/2022 11:21:54 -80.89,-133.53 75.04 1.51 65
8 12/05/2022 16:54:32 80.89, -36.92 105.21 12/05/2022 16:54:39 80.90, -36.85 105.22 1.15 7
9 12/07/2022 22:28:16 -80.90, 59.67 74.56 12/07/2022 22:27:28 -80.90, 59.85 74.56 3.14 48



Historial Predications of SNOs between LANDSAT-8 and NOAA-19
